• In Deutschland
  • Länderverzeichnis
  • Für 7 Tage
  • Wassertemperatur
  • Satellitenkarten
  • Wetterkarte
  • Widgets
  • user-avatar
    Anmelden

    Stündliche Wetter Emsdetten

    Heute, 19 Februar, Montag

    Zeit Temperatur Niederschläge Wind Luftdruck Luftfeuchtigkeit
    00:00 0°C° 0 mm 3 m/S 764 mmHg 79%
    01:00 -1°C° 0 mm 2 m/S 764 mmHg 81%
    02:00 -1°C° 0 mm 2 m/S 763 mmHg 80%
    03:00 -1°C° 0 mm 2 m/S 763 mmHg 79%
    04:00 -1°C° 0 mm 2 m/S 763 mmHg 78%
    05:00 -1°C° 0 mm 2 m/S 762 mmHg 77%
    06:00 -1°C° 0 mm 2 m/S 762 mmHg 76%
    07:00 -1°C° 0 mm 2 m/S 762 mmHg 75%
    08:00 +1°C° 0 mm 2 m/S 762 mmHg 72%
    09:00 +1°C° 0 mm 2 m/S 762 mmHg 68%
    10:00 +2°C° 0 mm 2 m/S 761 mmHg 65%
    11:00 +3°C° 0 mm 2 m/S 761 mmHg 61%
    12:00 +4°C° 0 mm 2 m/S 761 mmHg 56%
    13:00 +5°C° 0 mm 2 m/S 761 mmHg 52%
    14:00 +6°C° 0 mm 1 m/S 760 mmHg 52%
    15:00 +6°C° 0 mm 1 m/S 760 mmHg 53%
    16:00 +6°C° 0 mm 1 m/S 760 mmHg 53%
    17:00 +5°C° 0 mm 1 m/S 760 mmHg 57%
    18:00 +4°C° 0 mm 1 m/S 760 mmHg 61%
    19:00 +2°C° 0 mm 1 m/S 760 mmHg 65%
    20:00 +2°C° 0 mm 1 m/S 760 mmHg 66%
    21:00 +2°C° 0 mm 1 m/S 760 mmHg 68%
    22:00 +1°C° 0 mm 1 m/S 760 mmHg 70%
    23:00 +1°C° 0 mm 1 m/S 760 mmHg 71%

    Morgen, 20 Februar, Dienstag

    Zeit Temperatur Niederschläge Wind Luftdruck Luftfeuchtigkeit
    00:00 +1°C° 0 mm 1 m/S 760 mmHg 72%
    01:00 +1°C° 0 mm 1 m/S 760 mmHg 74%
    02:00 +1°C° 0 mm 1 m/S 760 mmHg 75%
    03:00 +1°C° 0 mm 1 m/S 760 mmHg 76%
    04:00 -2°C° 0 mm 2 m/S 760 mmHg 77%
    05:00 -2°C° 0 mm 2 m/S 760 mmHg 77%
    06:00 -2°C° 0 mm 2 m/S 760 mmHg 78%
    07:00 -2°C° 0 mm 2 m/S 760 mmHg 78%
    08:00 -1°C° 0 mm 2 m/S 760 mmHg 74%
    09:00 +1°C° 0 mm 2 m/S 760 mmHg 70%
    10:00 +2°C° 0 mm 2 m/S 761 mmHg 65%
    11:00 +2°C° 0 mm 3 m/S 761 mmHg 60%
    12:00 +3°C° 0 mm 3 m/S 761 mmHg 55%
    13:00 +4°C° 0 mm 3 m/S 761 mmHg 50%
    14:00 +4°C° 0 mm 3 m/S 761 mmHg 51%
    15:00 +4°C° 0 mm 3 m/S 761 mmHg 52%
    16:00 +4°C° 0 mm 3 m/S 761 mmHg 53%
    17:00 +3°C° 0 mm 3 m/S 761 mmHg 59%
    18:00 +1°C° 0 mm 3 m/S 762 mmHg 65%
    19:00 0°C° 0 mm 3 m/S 762 mmHg 71%
    20:00 -1°C° 0 mm 3 m/S 763 mmHg 73%
    21:00 -1°C° 0 mm 3 m/S 763 mmHg 75%
    22:00 -1°C° 0 mm 3 m/S 764 mmHg 76%
    23:00 -2°C° 0 mm 3 m/S 764 mmHg 77%

    übermorgen, 21 Februar, Mittwoch

    Zeit Temperatur Niederschläge Wind Luftdruck Luftfeuchtigkeit
    00:00 -2°C° 0 mm 2 m/S 765 mmHg 78%
    01:00 -2°C° 0 mm 2 m/S 765 mmHg 79%
    02:00 -2°C° 0 mm 2 m/S 765 mmHg 80%
    03:00 -2°C° 0 mm 2 m/S 765 mmHg 80%
    04:00 -3°C° 0 mm 2 m/S 765 mmHg 80%
    05:00 -3°C° 0 mm 2 m/S 765 mmHg 80%
    06:00 -3°C° 0 mm 2 m/S 765 mmHg 80%
    07:00 -3°C° 0 mm 2 m/S 765 mmHg 81%
    08:00 -2°C° 0 mm 2 m/S 765 mmHg 75%
    09:00 -1°C° 0 mm 2 m/S 766 mmHg 70%
    10:00 0°C° 0 mm 3 m/S 766 mmHg 65%
    11:00 +1°C° 0 mm 3 m/S 765 mmHg 59%
    12:00 +2°C° 0 mm 3 m/S 765 mmHg 54%
    13:00 +3°C° 0 mm 3 m/S 765 mmHg 48%
    14:00 +3°C° 0 mm 3 m/S 765 mmHg 49%
    15:00 +3°C° 0 mm 3 m/S 764 mmHg 49%
    16:00 +3°C° 0 mm 3 m/S 764 mmHg 50%
    17:00 +2°C° 0 mm 3 m/S 764 mmHg 56%
    18:00 +1°C° 0 mm 3 m/S 764 mmHg 62%
    19:00 -1°C° 0 mm 3 m/S 764 mmHg 68%
    20:00 -1°C° 0 mm 3 m/S 764 mmHg 70%
    21:00 -2°C° 0 mm 3 m/S 765 mmHg 72%
    22:00 -2°C° 0 mm 3 m/S 765 mmHg 74%
    23:00 -2°C° 0 mm 3 m/S 765 mmHg 75%

    22 Februar, Donnerstag

    Zeit Temperatur Niederschläge Wind Luftdruck Luftfeuchtigkeit
    00:00 -2°C° 0 mm 3 m/S 765 mmHg 75%
    01:00 -2°C° 0 mm 3 m/S 765 mmHg 76%
    02:00 -2°C° 0 mm 3 m/S 765 mmHg 76%
    03:00 -2°C° 0 mm 3 m/S 765 mmHg 77%
    04:00 -2°C° 0 mm 3 m/S 764 mmHg 77%
    05:00 -4°C° 0 mm 3 m/S 765 mmHg 77%
    06:00 -4°C° 0 mm 3 m/S 765 mmHg 77%
    07:00 -4°C° 0 mm 4 m/S 765 mmHg 77%
    08:00 -3°C° 0 mm 4 m/S 765 mmHg 70%
    09:00 -2°C° 0 mm 5 m/S 765 mmHg 63%
    10:00 -1°C° 0 mm 5 m/S 765 mmHg 56%
    11:00 0°C° 0 mm 5 m/S 765 mmHg 52%
    12:00 +1°C° 0 mm 6 m/S 765 mmHg 48%
    13:00 +2°C° 0 mm 6 m/S 765 mmHg 44%
    14:00 +1°C° 0 mm 6 m/S 764 mmHg 45%
    15:00 +1°C° 0 mm 6 m/S 764 mmHg 47%
    16:00 +1°C° 0 mm 6 m/S 764 mmHg 49%
    17:00 0°C° 0 mm 5 m/S 764 mmHg 55%
    18:00 -1°C° 0 mm 5 m/S 764 mmHg 60%
    19:00 -2°C° 0 mm 4 m/S 764 mmHg 66%
    20:00 -2°C° 0 mm 4 m/S 764 mmHg 69%
    21:00 -2°C° 0 mm 4 m/S 765 mmHg 72%
    22:00 -4°C° 0 mm 5 m/S 765 mmHg 74%
    23:00 -4°C° 0 mm 5 m/S 765 mmHg 76%

    23 Februar, Freitag

    Zeit Temperatur Niederschläge Wind Luftdruck Luftfeuchtigkeit
    00:00 -4°C° 0 mm 5 m/S 765 mmHg 77%
    01:00 -4°C° 0 mm 5 m/S 765 mmHg 79%
    02:00 -5°C° 0 mm 5 m/S 764 mmHg 79%
    03:00 -5°C° 0 mm 5 m/S 764 mmHg 78%
    04:00 -5°C° 0 mm 5 m/S 764 mmHg 78%
    05:00 -5°C° 0 mm 5 m/S 764 mmHg 76%
    06:00 -5°C° 0 mm 5 m/S 765 mmHg 74%
    07:00 -5°C° 0 mm 6 m/S 765 mmHg 72%
    08:00 -5°C° 0 mm 6 m/S 765 mmHg 66%
    09:00 -4°C° 0 mm 6 m/S 765 mmHg 61%
    10:00 -4°C° 0 mm 7 m/S 766 mmHg 55%
    11:00 -3°C° 0 mm 7 m/S 766 mmHg 51%
    12:00 -2°C° 0 mm 7 m/S 765 mmHg 48%
    13:00 -1°C° 0 mm 7 m/S 765 mmHg 44%
    14:00 -1°C° 0 mm 7 m/S 765 mmHg 45%
    15:00 -1°C° 0 mm 7 m/S 765 mmHg 45%
    16:00 -1°C° 0 mm 7 m/S 765 mmHg 46%
    17:00 -2°C° 0 mm 6 m/S 765 mmHg 49%
    18:00 -3°C° 0 mm 6 m/S 766 mmHg 52%
    19:00 -4°C° 0 mm 5 m/S 766 mmHg 54%
    20:00 -4°C° 0 mm 5 m/S 766 mmHg 53%
    21:00 -4°C° 0 mm 6 m/S 767 mmHg 52%
    22:00 -5°C° 0 mm 6 m/S 767 mmHg 52%
    23:00 -5°C° 0 mm 6 m/S 768 mmHg 51%

    24 Februar, Samstag

    Zeit Temperatur Niederschläge Wind Luftdruck Luftfeuchtigkeit
    00:00 -5°C° 0 mm 6 m/S 768 mmHg 51%
    01:00 -5°C° 0 mm 6 m/S 768 mmHg 50%
    02:00 -5°C° 0 mm 6 m/S 768 mmHg 49%
    03:00 -6°C° 0 mm 6 m/S 768 mmHg 48%
    04:00 -6°C° 0 mm 6 m/S 768 mmHg 47%
    05:00 -6°C° 0 mm 6 m/S 769 mmHg 47%
    06:00 -6°C° 0 mm 6 m/S 769 mmHg 47%
    07:00 -6°C° 0 mm 6 m/S 769 mmHg 47%
    08:00 -5°C° 0 mm 6 m/S 770 mmHg 45%
    09:00 -5°C° 0 mm 6 m/S 770 mmHg 44%
    10:00 -4°C° 0 mm 7 m/S 771 mmHg 42%
    11:00 -3°C° 0 mm 6 m/S 770 mmHg 40%
    12:00 -2°C° 0 mm 6 m/S 770 mmHg 38%
    13:00 -2°C° 0 mm 6 m/S 770 mmHg 36%
    14:00 -2°C° 0 mm 6 m/S 770 mmHg 38%
    15:00 -2°C° 0 mm 6 m/S 770 mmHg 39%
    16:00 -2°C° 0 mm 6 m/S 770 mmHg 40%
    17:00 -2°C° 0 mm 5 m/S 770 mmHg 45%
    18:00 -4°C° 0 mm 5 m/S 770 mmHg 50%
    19:00 -3°C° 0 mm 4 m/S 770 mmHg 55%
    20:00 -4°C° 0 mm 4 m/S 770 mmHg 56%
    21:00 -4°C° 0 mm 4 m/S 770 mmHg 58%
    22:00 -5°C° 0 mm 5 m/S 770 mmHg 60%
    23:00 -6°C° 0 mm 5 m/S 770 mmHg 61%
    Mehr zeigen